This is the latest recevied weather packets stored in our database for station/object F5OWB. If no packets are shown the sender has not sent any weather packets the latest 10 day(s).
| Time | Temp. | Humidity | Pressure | Rain* | Wind** | Luminosity | Snow |
|---|---|---|---|---|---|---|---|
| 1778239202 | 18.33° C | 56% | 1018.9 hPa | 0 mm | - | 761 W/m² | - |
| 1778239140 | 18.33° C | 56% | 1018.9 hPa | 0 mm | - | 763 W/m² | - |
| 1778239083 | 18.33° C | 58% | 1018.9 hPa | 0 mm | - | 780 W/m² | - |
| 1778239021 | 18.33° C | 55% | 1018.9 hPa | 0 mm | - | 782 W/m² | - |
| 1778238963 | 18.33° C | 57% | 1018.9 hPa | 0 mm | - | 772 W/m² | - |
| 1778238900 | 18.33° C | 57% | 1018.9 hPa | 0 mm | - | 758 W/m² | - |
| 1778238840 | 18.33° C | 57% | 1018.8 hPa | 0 mm | - | 751 W/m² | - |
| 1778238780 | 18.33° C | 57% | 1018.9 hPa | 0 mm | - | 729 W/m² | - |
| 1778238724 | 18.33° C | 58% | 1018.9 hPa | 0 mm | - | 747 W/m² | - |
| 1778238661 | 18.33° C | 58% | 1018.9 hPa | 0 mm | - | 744 W/m² | - |
| 1778238598 | 18.33° C | 56% | 1018.9 hPa | 0 mm | - | 735 W/m² | - |
| 1778238539 | 18.33° C | 58% | 1018.9 hPa | 0 mm | - | 766 W/m² | - |
| 1778238479 | 18.33° C | 60% | 1018.9 hPa | 0 mm | - | 772 W/m² | - |
| 1778238418 | 18.33° C | 59% | 1018.9 hPa | 0 mm | - | 780 W/m² | - |
| 1778238359 | 18.33° C | 57% | 1018.9 hPa | 0 mm | - | 789 W/m² | - |
| 1778238297 | 18.33° C | 61% | 1019 hPa | 0 mm | - | 796 W/m² | - |
| 1778238231 | 18.33° C | 58% | 1019 hPa | 0 mm | - | 789 W/m² | - |
| 1778238169 | 18.33° C | 56% | 1019 hPa | 0 mm | - | 705 W/m² | - |
| 1778238108 | 18.33° C | 58% | 1019 hPa | 0 mm | - | 694 W/m² | - |
| 1778238049 | 18.33° C | 59% | 1019 hPa | 0 mm | - | 705 W/m² | - |
| 1778237991 | 18.33° C | 60% | 1019 hPa | 0 mm | - | 729 W/m² | - |
| 1778237928 | 18.33° C | 60% | 1019 hPa | 0 mm | - | 796 W/m² | - |
| 1778237868 | 18.33° C | 60% | 1019.1 hPa | 0 mm | - | 795 W/m² | - |
| 1778237808 | 18.33° C | 60% | 1019.1 hPa | 0 mm | - | 789 W/m² | - |
| 1778237749 | 17.78° C | 57% | 1019.1 hPa | 0 mm | - | 788 W/m² | - |
* Rain latest hour (hover to see other rain measurements)
** Current wind speed in m/s (hover to see current wind gust speed)